,,,PA_Meas_PMT16A,,PR_Meas_QMR101_102,,RH_Meas_QMH101,,SR_Meas_QMS101,,TA_Meas_QMH101,,GenWind,,GenWind,
date,time,status,PA,status,PR,status,RH,status,SR,status,TA,status,DirAvg,status,SpdAvg,
2009-12-31, 00:00:04,VALID,1003,VALID,0,VALID,95.1016,VALID,0,VALID,24.7919,VALID,44,VALID,0,
2009-12-31, 00:01:04,VALID,1003.03,VALID,0,VALID,95.094,VALID,0,VALID,24.7919,VALID,44,VALID,0,
2009-12-31, 00:02:04,VALID,1002.98,VALID,0,VALID,95.1169,VALID,0,VALID,24.7919,VALID,44,VALID,0,
2009-12-31, 00:03:04,VALID,1002.99,VALID,0,VALID,95.1245,VALID,0,VALID,24.7937,VALID,44,VALID,0,
2009-12-31, 00:04:04,VALID,1002.96,VALID,0,VALID,95.1169,VALID,0.100563,VALID,24.7724,VALID,44,VALID,0,
2009-12-31, 00:05:04,VALID,1002.96,VALID,0,VALID,95.1169,VALID,0,VALID,24.7743,VALID,36,VALID,0,
2009-12-31, 00:06:04,VALID,1002.93,VALID,0,VALID,95.1398,VALID,0.100563,VALID,24.7529,VALID,28,VALID,0,
2009-12-31, 00:07:04,VALID,1002.93,VALID,0,VALID,95.1474,VALID,0.100563,VALID,24.7919,VALID,28,VALID,0,
2009-12-31, 00:08:04,VALID,1002.93,VALID,0,VALID,95.1474,VALID,0.100563,VALID,24.8113,VALID,15,VALID,0,
2009-12-31, 00:09:04,VALID,1002.92,VALID,0,VALID,95.155,VALID,0.100563,VALID,24.8308,VALID,15,VALID,0,
2009-12-31, 00:10:04,VALID,1002.9,VALID,0,VALID,95.155,VALID,0,VALID,24.8522,VALID,15,VALID,0,
2009-12-31, 00:11:04,VALID,1002.91,VALID,0,VALID,95.1779,VALID,0,VALID,24.8308,VALID,15,VALID,0,
2009-12-31, 00:12:04,VALID,1002.91,VALID,0,VALID,95.1932,VALID,0.100563,VALID,24.8503,VALID,15,VALID,0,
2009-12-31, 00:13:04,VALID,1002.91,VALID,0,VALID,95.1779,VALID,0,VALID,24.8716,VALID,15,VALID,0,
2009-12-31, 00:14:04,VALID,1002.92,VALID,0,VALID,95.1855,VALID,0,VALID,24.8716,VALID,15,VALID,0,
2009-12-31, 00:15:04,VALID,1002.91,VALID,0,VALID,95.2008,VALID,0,VALID,24.8716,VALID,15,VALID,0,
2009-12-31, 00:16:04,VALID,1002.89,VALID,0,VALID,95.1779,VALID,0,VALID,24.8716,VALID,15,VALID,0,
2009-12-31, 00:17:04,VALID,1002.88,VALID,0,VALID,95.1855,VALID,0,VALID,24.8327,VALID,15,VALID,0,
2009-12-31, 00:18:04,VALID,1002.86,VALID,0,VALID,95.1779,VALID,0,VALID,24.7919,VALID,15,VALID,0,
2009-12-31, 00:19:04,VALID,1002.85,VALID,0,VALID,95.1703,VALID,0.100563,VALID,24.7529,VALID,15,VALID,0,
2009-12-31, 00:20:04,VALID,1002.84,VALID,0,VALID,95.1779,VALID,0,VALID,24.7743,VALID,15,VALID,0,
2009-12-31, 00:21:04,VALID,1002.85,VALID,0,VALID,95.1779,VALID,0,VALID,24.7529,VALID,15,VALID,0,
2009-12-31, 00:22:04,VALID,1002.86,VALID,0,VALID,95.1703,VALID,0,VALID,24.7548,VALID,15,VALID,0,
2009-12-31, 00:23:04,VALID,1002.83,VALID,0,VALID,95.1703,VALID,0,VALID,24.7529,VALID,15,VALID,0,
2009-12-31, 00:24:04,VALID,1002.8,VALID,0,VALID,95.1779,VALID,0,VALID,24.7937,VALID,15,VALID,0,
2009-12-31, 00:25:04,VALID,1002.78,VALID,0,VALID,95.1703,VALID,0.100563,VALID,24.7743,VALID,15,VALID,0,
2009-12-31, 00:26:04,VALID,1002.79,VALID,0,VALID,95.1855,VALID,0,VALID,24.7335,VALID,15,VALID,0,
2009-12-31, 00:27:04,VALID,1002.79,VALID,0,VALID,95.1703,VALID,0,VALID,24.7529,VALID,15,VALID,0,
2009-12-31, 00:28:04,VALID,1002.76,VALID,0,VALID,95.1855,VALID,0,VALID,24.714,VALID,15,VALID,0,
2009-12-31, 00:29:04,VALID,1002.75,VALID,0,VALID,95.155,VALID,0,VALID,24.7159,VALID,15,VALID,0,
2009-12-31, 00:30:04,VALID,1002.75,VALID,0,VALID,95.1703,VALID,0.100563,VALID,24.675,VALID,15,VALID,0,
2009-12-31, 00:31:04,VALID,1002.74,VALID,0,VALID,95.1779,VALID,0,VALID,24.638,VALID,15,VALID,0,
2009-12-31, 00:32:04,VALID,1002.71,VALID,0,VALID,95.1627,VALID,0.100563,VALID,24.5972,VALID,15,VALID,0,
2009-12-31, 00:33:04,VALID,1002.74,VALID,0,VALID,95.155,VALID,0.100563,VALID,24.5972,VALID,15,VALID,0,
2009-12-31, 00:34:04,VALID,1002.7,VALID,0,VALID,95.1627,VALID,0,VALID,24.5972,VALID,15,VALID,0,
2009-12-31, 00:35:04,VALID,1002.68,VALID,0,VALID,95.1474,VALID,0.100563,VALID,24.5777,VALID,96,VALID,0,
2009-12-31, 00:36:04,VALID,1002.68,VALID,0,VALID,95.1398,VALID,0.100563,VALID,24.5777,VALID,96,VALID,0,
2009-12-31, 00:37:04,VALID,1002.64,VALID,0,VALID,95.1474,VALID,0,VALID,24.5582,VALID,98,VALID,0,
2009-12-31, 00:38:04,VALID,1002.65,VALID,0,VALID,95.1321,VALID,0.100563,VALID,24.5777,VALID,101,VALID,0,
2009-12-31, 00:39:04,VALID,1002.64,VALID,0,VALID,95.1474,VALID,0,VALID,24.5972,VALID,107,VALID,0,
2009-12-31, 00:40:04,VALID,1002.63,VALID,0,VALID,95.1398,VALID,0.100563,VALID,24.5972,VALID,107,VALID,0,
2009-12-31, 00:41:04,VALID,1002.58,VALID,0,VALID,95.1474,VALID,0.100563,VALID,24.638,VALID,107,VALID,0,
2009-12-31, 00:42:04,VALID,1002.59,VALID,0,VALID,95.1474,VALID,0.100563,VALID,24.638,VALID,107,VALID,0,
2009-12-31, 00:43:04,VALID,1002.58,VALID,0,VALID,95.1245,VALID,0.100563,VALID,24.6166,VALID,107,VALID,0,
2009-12-31, 00:44:04,VALID,1002.57,VALID,0,VALID,95.1321,VALID,0,VALID,24.6166,VALID,107,VALID,0,
2009-12-31, 00:45:04,VALID,1002.59,VALID,0,VALID,95.1245,VALID,0.100563,VALID,24.6574,VALID,107,VALID,0,
2009-12-31, 00:46:04,VALID,1002.56,VALID,0,VALID,95.1169,VALID,0.100563,VALID,24.6361,VALID,107,VALID,0,
2009-12-31, 00:47:04,VALID,1002.57,VALID,0,VALID,95.1169,VALID,0,VALID,24.6166,VALID,91,VALID,0,
2009-12-31, 00:48:04,VALID,1002.55,VALID,0,VALID,95.0864,VALID,0,VALID,24.5777,VALID,91,VALID,0,
2009-12-31, 00:49:04,VALID,1002.53,VALID,0,VALID,95.0787,VALID,0,VALID,24.5777,VALID,91,VALID,0,
2009-12-31, 00:50:04,VALID,1002.53,VALID,0,VALID,95.0558,VALID,0,VALID,24.5582,VALID,91,VALID,0,
2009-12-31, 00:51:04,VALID,1002.51,VALID,0,VALID,95.0177,VALID,0.100563,VALID,24.4785,VALID,91,VALID,0,
2009-12-31, 00:52:04,VALID,1002.5,VALID,0,VALID,94.9948,VALID,0.100563,VALID,24.4804,VALID,91,VALID,0,
2009-12-31, 00:53:04,VALID,1002.51,VALID,0,VALID,94.9643,VALID,0,VALID,24.4609,VALID,91,VALID,0,
2009-12-31, 00:54:04,VALID,1002.46,VALID,0,VALID,94.949,VALID,0.100563,VALID,24.4414,VALID,91,VALID,0,
2009-12-31, 00:55:04,VALID,1002.46,VALID,0,VALID,94.9262,VALID,0.100563,VALID,24.4025,VALID,91,VALID,0,
2009-12-31, 00:56:04,VALID,1002.43,VALID,0,VALID,94.9338,VALID,0,VALID,24.4025,VALID,91,VALID,0,
2009-12-31, 00:57:04,VALID,1002.45,VALID,0,VALID,94.9185,VALID,0,VALID,24.383,VALID,91,VALID,0,
2009-12-31, 00:58:04,VALID,1002.43,VALID,0,VALID,94.888,VALID,0,VALID,24.3617,VALID,91,VALID,0,
2009-12-31, 00:59:04,VALID,1002.43,VALID,0,VALID,94.8956,VALID,0,VALID,24.3441,VALID,91,VALID,0,
2009-12-31, 01:00:04,VALID,1002.44,VALID,0,VALID,94.8651,VALID,0.100563,VALID,24.3246,VALID,91,VALID,0,
2009-12-31, 01:01:04,VALID,1002.43,VALID,0,VALID,94.8728,VALID,0,VALID,24.3052,VALID,91,VALID,0,
2009-12-31, 01:02:04,VALID,1002.42,VALID,0,VALID,94.888,VALID,0,VALID,24.3033,VALID,91,VALID,0,
2009-12-31, 01:03:04,VALID,1002.42,VALID,0,VALID,94.8804,VALID,0,VALID,24.3654,VALID,91,VALID,0,
2009-12-31, 01:04:04,VALID,1002.42,VALID,0,VALID,94.8804,VALID,0,VALID,24.3654,VALID,91,VALID,0,
2009-12-31, 01:05:04,VALID,1002.41,VALID,0,VALID,94.8956,VALID,0,VALID,24.3441,VALID,91,VALID,0,
2009-12-31, 01:06:04,VALID,1002.4,VALID,0,VALID,94.9033,VALID,0,VALID,24.3246,VALID,91,VALID,0,
2009-12-31, 01:07:04,VALID,1002.38,VALID,0,VALID,94.9109,VALID,0,VALID,24.3246,VALID,91,VALID,0,
2009-12-31, 01:08:04,VALID,1002.37,VALID,0,VALID,94.9185,VALID,0,VALID,24.3052,VALID,91,VALID,0,
2009-12-31, 01:09:04,VALID,1002.34,VALID,0,VALID,94.9109,VALID,0,VALID,24.3052,VALID,91,VALID,0,
2009-12-31, 01:10:04,VALID,1002.32,VALID,0,VALID,94.9109,VALID,0.100563,VALID,24.3052,VALID,91,VALID,0,
2009-12-31, 01:11:04,VALID,1002.31,VALID,0,VALID,94.9414,VALID,0,VALID,24.3052,VALID,91,VALID,0,
2009-12-31, 01:12:04,VALID,1002.28,VALID,0,VALID,94.9185,VALID,0,VALID,24.2857,VALID,91,VALID,0,
2009-12-31, 01:13:04,VALID,1002.26,VALID,0,VALID,94.9567,VALID,0,VALID,24.2662,VALID,83,VALID,0,
2009-12-31, 01:14:04,VALID,1002.22,VALID,0,VALID,94.9414,VALID,0,VALID,24.2468,VALID,70,VALID,0,
2009-12-31, 01:15:04,VALID,1002.24,VALID,0,VALID,94.9414,VALID,0,VALID,24.2291,VALID,70,VALID,0,
2009-12-31, 01:16:04,VALID,1002.21,VALID,0,VALID,94.949,VALID,0,VALID,24.1884,VALID,70,VALID,0,
2009-12-31, 01:17:04,VALID,1002.2,VALID,0,VALID,94.9414,VALID,0.100563,VALID,24.13,VALID,70,VALID,0,
2009-12-31, 01:18:04,VALID,1002.21,VALID,0,VALID,94.9567,VALID,0,VALID,24.1105,VALID,70,VALID,0,
2009-12-31, 01:19:04,VALID,1002.21,VALID,0,VALID,94.9338,VALID,0,VALID,24.1123,VALID,70,VALID,0,
2009-12-31, 01:20:04,VALID,1002.24,VALID,0,VALID,94.9338,VALID,0,VALID,24.0716,VALID,70,VALID,0,
2009-12-31, 01:21:04,VALID,1002.22,VALID,0,VALID,94.9567,VALID,0,VALID,24.0716,VALID,70,VALID,0,
2009-12-31, 01:22:04,VALID,1002.22,VALID,0,VALID,94.9796,VALID,0,VALID,24.091,VALID,70,VALID,0,
2009-12-31, 01:23:04,VALID,1002.2,VALID,0,VALID,94.9948,VALID,0,VALID,24.091,VALID,70,VALID,0,
2009-12-31, 01:24:04,VALID,1002.21,VALID,0,VALID,94.9948,VALID,0.100563,VALID,24.13,VALID,70,VALID,0,
2009-12-31, 01:25:04,VALID,1002.17,VALID,0,VALID,95.0177,VALID,0,VALID,24.1105,VALID,70,VALID,0,
2009-12-31, 01:26:04,VALID,1002.16,VALID,0,VALID,95.033,VALID,0,VALID,24.1513,VALID,70,VALID,0,
2009-12-31, 01:27:04,VALID,1002.13,VALID,0,VALID,95.0177,VALID,0,VALID,24.1494,VALID,70,VALID,0,
2009-12-31, 01:28:04,VALID,1002.11,VALID,0,VALID,95.0558,VALID,0.100563,VALID,24.1494,VALID,70,VALID,0,
2009-12-31, 01:29:04,VALID,1002.12,VALID,0,VALID,95.0558,VALID,0,VALID,24.1494,VALID,70,VALID,0,
2009-12-31, 01:30:04,VALID,1002.11,VALID,0,VALID,95.0787,VALID,0,VALID,24.1884,VALID,70,VALID,0,
2009-12-31, 01:31:04,VALID,1002.11,VALID,0,VALID,95.0787,VALID,0,VALID,24.2078,VALID,70,VALID,0,
2009-12-31, 01:32:04,VALID,1002.1,VALID,0,VALID,95.1016,VALID,0,VALID,24.2273,VALID,70,VALID,0,
2009-12-31, 01:33:04,VALID,1002.08,VALID,0,VALID,95.1169,VALID,0,VALID,24.2078,VALID,69,VALID,0,
2009-12-31, 01:34:04,VALID,1002.06,VALID,0,VALID,95.1093,VALID,0.100563,VALID,24.1689,VALID,69,VALID,0,
2009-12-31, 01:35:04,VALID,1002.04,VALID,0,VALID,95.1016,VALID,0,VALID,24.13,VALID,68,VALID,0,
2009-12-31, 01:36:04,VALID,1002.03,VALID,0,VALID,95.1321,VALID,0,VALID,24.1105,VALID,67,VALID,0,
2009-12-31, 01:37:04,VALID,1002,VALID,0,VALID,95.1169,VALID,0.100563,VALID,24.1105,VALID,67,VALID,0,
2009-12-31, 01:38:04,VALID,1001.98,VALID,0,VALID,95.094,VALID,0.100563,VALID,24.0697,VALID,67,VALID,0,
2009-12-31, 01:39:04,VALID,1001.96,VALID,0,VALID,95.1016,VALID,0.100563,VALID,24.0929,VALID,67,VALID,0,
2009-12-31, 01:40:04,VALID,1001.95,VALID,0,VALID,95.1245,VALID,0,VALID,24.0326,VALID,67,VALID,0,
2009-12-31, 01:41:04,VALID,1001.92,VALID,0,VALID,95.1016,VALID,0,VALID,24.0521,VALID,67,VALID,0,
2009-12-31, 01:42:04,VALID,1001.9,VALID,0,VALID,95.1321,VALID,0,VALID,24.0697,VALID,67,VALID,0,
2009-12-31, 01:43:04,VALID,1001.88,VALID,0,VALID,95.155,VALID,0,VALID,24.091,VALID,67,VALID,0,
2009-12-31, 01:44:04,VALID,1001.86,VALID,0,VALID,95.1627,VALID,0,VALID,24.13,VALID,57,VALID,0,
2009-12-31, 01:45:04,VALID,1001.84,VALID,0,VALID,95.1703,VALID,0.100563,VALID,24.1105,VALID,55,VALID,0,
2009-12-31, 01:46:04,VALID,1001.79,VALID,0,VALID,95.1703,VALID,0.100563,VALID,24.0697,VALID,55,VALID,0,
2009-12-31, 01:47:04,VALID,1001.8,VALID,0,VALID,95.1627,VALID,0.100563,VALID,24.0716,VALID,48,VALID,0,
2009-12-31, 01:48:04,VALID,1001.75,VALID,0,VALID,95.1627,VALID,0.100563,VALID,24.091,VALID,37,VALID,0,
2009-12-31, 01:49:04,VALID,1001.72,VALID,0,VALID,95.1855,VALID,0.100563,VALID,24.0716,VALID,27,VALID,0,
2009-12-31, 01:50:04,VALID,1001.69,VALID,0,VALID,95.1932,VALID,0,VALID,24.0326,VALID,25,VALID,0,
2009-12-31, 01:51:04,VALID,1001.66,VALID,0,VALID,95.2008,VALID,0,VALID,24.0521,VALID,8,VALID,0,
2009-12-31, 01:52:04,VALID,1001.64,VALID,0,VALID,95.2084,VALID,0,VALID,24.0521,VALID,8,VALID,0,
2009-12-31, 01:53:04,VALID,1001.59,VALID,0,VALID,95.2008,VALID,0.100563,VALID,24.0521,VALID,8,VALID,0,
2009-12-31, 01:54:04,VALID,1001.58,VALID,0,VALID,95.2237,VALID,0,VALID,24.0734,VALID,8,VALID,0,
2009-12-31, 01:55:04,VALID,1001.58,VALID,0,VALID,95.2313,VALID,0.100563,VALID,24.0326,VALID,8,VALID,0,
2009-12-31, 01:56:04,VALID,1001.54,VALID,0,VALID,95.2161,VALID,0,VALID,24.0326,VALID,8,VALID,0,
2009-12-31, 01:57:04,VALID,1001.54,VALID,0,VALID,95.2389,VALID,0,VALID,24.0326,VALID,8,VALID,0,
2009-12-31, 01:58:04,VALID,1001.5,VALID,0,VALID,95.2389,VALID,0,VALID,24.0326,VALID,8,VALID,0,
2009-12-31, 01:59:04,VALID,1001.5,VALID,0,VALID,95.2313,VALID,0,VALID,24.0734,VALID,8,VALID,0,
2009-12-31, 02:00:04,VALID,1001.49,VALID,0,VALID,95.2313,VALID,0,VALID,24.0521,VALID,8,VALID,0,
2009-12-31, 02:01:04,VALID,1001.49,VALID,0,VALID,95.2466,VALID,0,VALID,24.0521,VALID,8,VALID,0,
2009-12-31, 02:02:04,VALID,1001.45,VALID,0,VALID,95.2771,VALID,0,VALID,24.0326,VALID,8,VALID,0,
2009-12-31, 02:03:04,VALID,1001.44,VALID,0,VALID,95.2695,VALID,0,VALID,24.0345,VALID,8,VALID,0,
2009-12-31, 02:04:04,VALID,1001.45,VALID,0,VALID,95.2695,VALID,0,VALID,23.9742,VALID,8,VALID,0,
2009-12-31, 02:05:04,VALID,1001.42,VALID,0,VALID,95.2618,VALID,0,VALID,23.9761,VALID,8,VALID,0,
2009-12-31, 02:06:04,VALID,1001.41,VALID,0,VALID,95.2847,VALID,0,VALID,23.9761,VALID,8,VALID,0,
2009-12-31, 02:07:04,VALID,1001.39,VALID,0,VALID,95.2847,VALID,0,VALID,23.9548,VALID,8,VALID,0,
2009-12-31, 02:08:04,VALID,1001.32,VALID,0,VALID,95.2847,VALID,0,VALID,23.9566,VALID,8,VALID,0,
2009-12-31, 02:09:04,VALID,1001.31,VALID,0,VALID,95.2618,VALID,0,VALID,23.9761,VALID,8,VALID,0,
2009-12-31, 02:10:04,VALID,1001.28,VALID,0,VALID,95.2923,VALID,0,VALID,23.9937,VALID,8,VALID,0,
2009-12-31, 02:11:04,VALID,1001.23,VALID,0,VALID,95.3,VALID,0,VALID,23.9937,VALID,8,VALID,0,
2009-12-31, 02:12:04,VALID,1001.21,VALID,0,VALID,95.2923,VALID,0,VALID,24.0132,VALID,8,VALID,0,
2009-12-31, 02:13:04,VALID,1001.18,VALID,0,VALID,95.3152,VALID,0,VALID,23.9937,VALID,8,VALID,0,
2009-12-31, 02:14:04,VALID,1001.12,VALID,0,VALID,95.3152,VALID,0,VALID,23.9742,VALID,8,VALID,0,
2009-12-31, 02:15:04,VALID,1001.1,VALID,0,VALID,95.3076,VALID,0,VALID,23.9742,VALID,8,VALID,0,
2009-12-31, 02:16:04,VALID,1001.08,VALID,0,VALID,95.3229,VALID,0,VALID,23.9742,VALID,8,VALID,0,
2009-12-31, 02:17:04,VALID,1001.05,VALID,0,VALID,95.3229,VALID,0,VALID,23.9955,VALID,8,VALID,0,
2009-12-31, 02:18:04,VALID,1001.02,VALID,0,VALID,95.3152,VALID,0,VALID,23.9955,VALID,8,VALID,0,
2009-12-31, 02:19:04,VALID,1000.99,VALID,0,VALID,95.3457,VALID,0,VALID,23.9742,VALID,8,VALID,0,
2009-12-31, 02:20:04,VALID,1000.98,VALID,0,VALID,95.3381,VALID,0,VALID,23.9761,VALID,8,VALID,0,
2009-12-31, 02:21:04,VALID,1000.96,VALID,0,VALID,95.3534,VALID,0,VALID,23.9742,VALID,8,VALID,0,
2009-12-31, 02:22:04,VALID,1000.95,VALID,0,VALID,95.3381,VALID,0,VALID,23.9742,VALID,8,VALID,0,
2009-12-31, 02:23:04,VALID,1000.95,VALID,0,VALID,95.3534,VALID,0,VALID,23.9742,VALID,8,VALID,0,
2009-12-31, 02:24:04,VALID,1000.97,VALID,0,VALID,95.3763,VALID,0,VALID,23.9742,VALID,8,VALID,0,
2009-12-31, 02:25:04,VALID,1000.95,VALID,0,VALID,95.3457,VALID,0,VALID,23.9548,VALID,8,VALID,0,
2009-12-31, 02:26:04,VALID,1000.91,VALID,0,VALID,95.3457,VALID,0,VALID,24.015,VALID,8,VALID,0,
2009-12-31, 02:27:04,VALID,1000.89,VALID,0,VALID,95.3381,VALID,0,VALID,24.0132,VALID,8,VALID,0,
2009-12-31, 02:28:04,VALID,1000.85,VALID,0,VALID,95.361,VALID,0,VALID,23.9937,VALID,8,VALID,0,
2009-12-31, 02:29:04,VALID,1000.84,VALID,0,VALID,95.361,VALID,0,VALID,23.9937,VALID,8,VALID,0,
2009-12-31, 02:30:04,VALID,1000.8,VALID,0,VALID,95.3457,VALID,0.100563,VALID,23.9353,VALID,8,VALID,0,
2009-12-31, 02:31:04,VALID,1000.78,VALID,0,VALID,95.3457,VALID,0,VALID,23.9742,VALID,8,VALID,0,
2009-12-31, 02:32:04,VALID,1000.77,VALID,0,VALID,95.3686,VALID,0.100563,VALID,23.9742,VALID,8,VALID,0,
2009-12-31, 02:33:04,VALID,1000.74,VALID,0,VALID,95.3839,VALID,0.100563,VALID,23.9937,VALID,8,VALID,0,
2009-12-31, 02:34:04,VALID,1000.68,VALID,0,VALID,95.3763,VALID,0.100563,VALID,23.9937,VALID,8,VALID,0,
2009-12-31, 02:35:04,VALID,1000.67,VALID,0,VALID,95.3686,VALID,0,VALID,24.0345,VALID,8,VALID,0,
2009-12-31, 02:36:04,VALID,1000.65,VALID,0,VALID,95.3763,VALID,0.100563,VALID,24.0132,VALID,8,VALID,0,
2009-12-31, 02:37:04,VALID,1000.63,VALID,0,VALID,95.3915,VALID,0,VALID,23.9937,VALID,8,VALID,0,
2009-12-31, 02:38:04,VALID,1000.63,VALID,0,VALID,95.3686,VALID,0,VALID,24.0132,VALID,8,VALID,0,
2009-12-31, 02:39:04,VALID,1000.61,VALID,0,VALID,95.3915,VALID,0.100563,VALID,24.0734,VALID,8,VALID,0,
2009-12-31, 02:40:04,VALID,1000.6,VALID,0,VALID,95.3763,VALID,0.100563,VALID,24.0716,VALID,8,VALID,0,
2009-12-31, 02:41:04,VALID,1000.58,VALID,0,VALID,95.3915,VALID,0.100563,VALID,24.091,VALID,8,VALID,0,
2009-12-31, 02:42:04,VALID,1000.55,VALID,0,VALID,95.3839,VALID,0,VALID,24.1494,VALID,8,VALID,0,
2009-12-31, 02:43:04,VALID,1000.56,VALID,0,VALID,95.3686,VALID,0,VALID,24.2078,VALID,22,VALID,0,
2009-12-31, 02:44:04,VALID,1000.55,VALID,0,VALID,95.3915,VALID,0,VALID,24.2875,VALID,66,VALID,0,
2009-12-31, 02:45:04,VALID,1000.52,VALID,0,VALID,95.3839,VALID,0,VALID,24.3459,VALID,66,VALID,0.59375,
2009-12-31, 02:46:04,VALID,1000.56,VALID,0,VALID,95.4068,VALID,0,VALID,24.4043,VALID,67,VALID,0.679688,
2009-12-31, 02:47:04,VALID,1000.53,VALID,0,VALID,95.4144,VALID,0,VALID,24.3636,VALID,79,VALID,0.575781,
2009-12-31, 02:48:04,VALID,1000.52,VALID,0,VALID,95.4144,VALID,0,VALID,24.4062,VALID,79,VALID,0.49375,
2009-12-31, 02:49:04,VALID,1000.56,VALID,0,VALID,95.422,VALID,0,VALID,24.4043,VALID,79,VALID,0.276172,
2009-12-31, 02:50:04,VALID,1000.57,VALID,0,VALID,95.422,VALID,0,VALID,24.4043,VALID,79,VALID,0.201172,
2009-12-31, 02:51:04,VALID,1000.56,VALID,0,VALID,95.422,VALID,0,VALID,24.3867,VALID,79,VALID,0.194531,
2009-12-31, 02:52:04,VALID,1000.58,VALID,0,VALID,95.422,VALID,0,VALID,24.3654,VALID,79,VALID,0.289453,
2009-12-31, 02:53:04,VALID,1000.55,VALID,0,VALID,95.4068,VALID,0,VALID,24.4043,VALID,42,VALID,0.698047,
2009-12-31, 02:54:04,VALID,1000.56,VALID,0,VALID,95.422,VALID,0,VALID,24.4238,VALID,41,VALID,0.606641,
2009-12-31, 02:55:04,VALID,1000.58,VALID,0,VALID,95.422,VALID,0,VALID,24.4433,VALID,36,VALID,0.616406,
2009-12-31, 02:56:04,VALID,1000.56,VALID,0,VALID,95.422,VALID,0,VALID,24.4238,VALID,23,VALID,0.576563,
2009-12-31, 02:57:04,VALID,1000.54,VALID,0,VALID,95.422,VALID,0,VALID,24.3849,VALID,23,VALID,0.464844,
2009-12-31, 02:58:04,VALID,1000.55,VALID,0,VALID,95.4297,VALID,0,VALID,24.3654,VALID,23,VALID,0,
2009-12-31, 02:59:04,VALID,1000.54,VALID,0,VALID,95.422,VALID,0,VALID,24.3246,VALID,23,VALID,0,
2009-12-31, 03:00:04,VALID,1000.54,VALID,0,VALID,95.4144,VALID,0.100563,VALID,24.3033,VALID,23,VALID,0,
2009-12-31, 03:01:04,VALID,1000.54,VALID,0,VALID,95.422,VALID,0.100563,VALID,24.2857,VALID,23,VALID,0,
2009-12-31, 03:02:04,VALID,1000.51,VALID,0,VALID,95.422,VALID,0,VALID,24.2468,VALID,23,VALID,0,
2009-12-31, 03:03:04,VALID,1000.53,VALID,0,VALID,95.4144,VALID,0,VALID,24.1689,VALID,23,VALID,0,
2009-12-31, 03:04:04,VALID,1000.47,VALID,0,VALID,95.4068,VALID,0,VALID,24.1318,VALID,23,VALID,0,
2009-12-31, 03:05:04,VALID,1000.5,VALID,0,VALID,95.3991,VALID,0.100563,VALID,24.1123,VALID,23,VALID,0,
2009-12-31, 03:06:04,VALID,1000.47,VALID,0,VALID,95.3763,VALID,0,VALID,24.1123,VALID,23,VALID,0,
2009-12-31, 03:07:04,VALID,1000.47,VALID,0,VALID,95.3915,VALID,0,VALID,24.1318,VALID,23,VALID,0,
2009-12-31, 03:08:04,VALID,1000.49,VALID,0,VALID,95.3839,VALID,0.100563,VALID,24.1513,VALID,23,VALID,0,
2009-12-31, 03:09:04,VALID,1000.48,VALID,0,VALID,95.3763,VALID,0,VALID,24.1494,VALID,23,VALID,0,
2009-12-31, 03:10:04,VALID,1000.52,VALID,0,VALID,95.3763,VALID,0,VALID,24.1902,VALID,23,VALID,0,
2009-12-31, 03:11:04,VALID,1000.54,VALID,0,VALID,95.3915,VALID,0,VALID,24.2097,VALID,23,VALID,0,
2009-12-31, 03:12:04,VALID,1000.51,VALID,0,VALID,95.3839,VALID,0,VALID,24.1884,VALID,23,VALID,0,
2009-12-31, 03:13:04,VALID,1000.51,VALID,0,VALID,95.3686,VALID,0.100563,VALID,24.1902,VALID,23,VALID,0,
2009-12-31, 03:14:04,VALID,1000.5,VALID,0,VALID,95.3991,VALID,0,VALID,24.2078,VALID,23,VALID,0,
2009-12-31, 03:15:04,VALID,1000.48,VALID,0,VALID,95.3915,VALID,0,VALID,24.1689,VALID,23,VALID,0,
2009-12-31, 03:16:04,VALID,1000.47,VALID,0,VALID,95.3839,VALID,0,VALID,24.1318,VALID,23,VALID,0,
2009-12-31, 03:17:04,VALID,1000.47,VALID,0,VALID,95.3915,VALID,0.100563,VALID,24.0132,VALID,23,VALID,0,
2009-12-31, 03:18:04,VALID,1000.49,VALID,0,VALID,95.361,VALID,0,VALID,23.9742,VALID,23,VALID,0,
2009-12-31, 03:19:04,VALID,1000.42,VALID,0,VALID,95.3686,VALID,0.100563,VALID,23.9353,VALID,23,VALID,0,
2009-12-31, 03:20:04,VALID,1000.43,VALID,0,VALID,95.3686,VALID,0,VALID,23.9742,VALID,23,VALID,0,
2009-12-31, 03:21:04,VALID,1000.4,VALID,0,VALID,95.3763,VALID,0,VALID,23.9548,VALID,23,VALID,0,
2009-12-31, 03:22:04,VALID,1000.41,VALID,0,VALID,95.3457,VALID,0,VALID,23.9353,VALID,23,VALID,0,
2009-12-31, 03:23:04,VALID,1000.38,VALID,0,VALID,95.3534,VALID,0,VALID,23.9353,VALID,22,VALID,0,
2009-12-31, 03:24:04,VALID,1000.39,VALID,0,VALID,95.3534,VALID,0,VALID,23.9353,VALID,22,VALID,0,
2009-12-31, 03:25:04,VALID,1000.39,VALID,0,VALID,95.3534,VALID,0,VALID,23.9159,VALID,22,VALID,0,
2009-12-31, 03:26:04,VALID,1000.43,VALID,0,VALID,95.3534,VALID,0,VALID,23.9159,VALID,22,VALID,0,
2009-12-31, 03:27:04,VALID,1000.41,VALID,0,VALID,95.3686,VALID,0.100563,VALID,23.8964,VALID,22,VALID,0,
2009-12-31, 03:28:04,VALID,1000.42,VALID,0,VALID,95.3457,VALID,0.100563,VALID,23.8769,VALID,22,VALID,0,
2009-12-31, 03:29:04,VALID,1000.41,VALID,0,VALID,95.3534,VALID,0,VALID,23.838,VALID,22,VALID,0,
2009-12-31, 03:30:04,VALID,1000.4,VALID,0,VALID,95.3534,VALID,0,VALID,23.8787,VALID,22,VALID,0,
2009-12-31, 03:31:04,VALID,1000.42,VALID,0,VALID,95.3763,VALID,0,VALID,23.8787,VALID,22,VALID,0,
2009-12-31, 03:32:04,VALID,1000.42,VALID,0,VALID,95.361,VALID,0,VALID,23.8982,VALID,22,VALID,0,
2009-12-31, 03:33:04,VALID,1000.42,VALID,0,VALID,95.3915,VALID,0,VALID,23.9389,VALID,22,VALID,0,
2009-12-31, 03:34:04,VALID,1000.43,VALID,0,VALID,95.3686,VALID,0,VALID,23.8982,VALID,22,VALID,0,
2009-12-31, 03:35:04,VALID,1000.39,VALID,0,VALID,95.3763,VALID,0,VALID,23.8575,VALID,22,VALID,0,
2009-12-31, 03:36:04,VALID,1000.39,VALID,0,VALID,95.3915,VALID,0,VALID,23.8185,VALID,22,VALID,0,
2009-12-31, 03:37:04,VALID,1000.4,VALID,0,VALID,95.3763,VALID,0,VALID,23.8398,VALID,19,VALID,0,
2009-12-31, 03:38:04,VALID,1000.43,VALID,0,VALID,95.3991,VALID,0,VALID,23.8398,VALID,19,VALID,0,
2009-12-31, 03:39:04,VALID,1000.4,VALID,0,VALID,95.3915,VALID,0,VALID,23.8593,VALID,19,VALID,0,
2009-12-31, 03:40:04,VALID,1000.43,VALID,0,VALID,95.3915,VALID,0,VALID,23.8593,VALID,19,VALID,0,
2009-12-31, 03:41:04,VALID,1000.41,VALID,0,VALID,95.4068,VALID,0,VALID,23.8593,VALID,17,VALID,0,
2009-12-31, 03:42:04,VALID,1000.41,VALID,0,VALID,95.4068,VALID,0,VALID,23.8805,VALID,15,VALID,0,
2009-12-31, 03:43:04,VALID,1000.39,VALID,0,VALID,95.4144,VALID,0,VALID,23.8398,VALID,14,VALID,0,
2009-12-31, 03:44:04,VALID,1000.44,VALID,0,VALID,95.422,VALID,0.100563,VALID,23.838,VALID,14,VALID,0,
2009-12-31, 03:45:04,VALID,1000.41,VALID,0,VALID,95.422,VALID,0,VALID,23.8575,VALID,14,VALID,0,
2009-12-31, 03:46:04,VALID,1000.41,VALID,0,VALID,95.4297,VALID,0.100563,VALID,23.838,VALID,14,VALID,0,
2009-12-31, 03:47:04,VALID,1000.42,VALID,0,VALID,95.4297,VALID,0.100563,VALID,23.8593,VALID,14,VALID,0,
2009-12-31, 03:48:04,VALID,1000.38,VALID,0,VALID,95.4526,VALID,0.100563,VALID,23.8787,VALID,14,VALID,0,
2009-12-31, 03:49:04,VALID,1000.36,VALID,0,VALID,95.4449,VALID,0.100563,VALID,23.8769,VALID,14,VALID,0,
2009-12-31, 03:50:04,VALID,1000.34,VALID,0,VALID,95.4526,VALID,0.100563,VALID,23.8769,VALID,14,VALID,0,
2009-12-31, 03:51:04,VALID,1000.33,VALID,0,VALID,95.422,VALID,0.100563,VALID,23.8575,VALID,14,VALID,0,
2009-12-31, 03:52:04,VALID,1000.33,VALID,0,VALID,95.4449,VALID,0.100563,VALID,23.8769,VALID,14,VALID,0,
2009-12-31, 03:53:04,VALID,1000.32,VALID,0,VALID,95.4602,VALID,0,VALID,23.8964,VALID,14,VALID,0,
2009-12-31, 03:54:04,VALID,1000.32,VALID,0,VALID,95.4678,VALID,0,VALID,23.9159,VALID,14,VALID,0,
2009-12-31, 03:55:04,VALID,1000.33,VALID,0,VALID,95.4907,VALID,0.100563,VALID,23.8964,VALID,14,VALID,0,
2009-12-31, 03:56:04,VALID,1000.34,VALID,0,VALID,95.4983,VALID,0.100563,VALID,23.8575,VALID,14,VALID,0,
2009-12-31, 03:57:04,VALID,1000.35,VALID,0,VALID,95.4754,VALID,0,VALID,23.8185,VALID,14,VALID,0,